Location: Cantaing
(50.1487°N, 3.1675°E)
Time: 13:58:38
(UTC+00:00)

SL-8 Rocket - Visible Passes

Search period start: 19 April 2026 00:00
Search period end: 29 April 2026 00:00
Orbit: 957 x 988 km, 82.9° (Epoch: 19 April)

Date Brightness Start Highest point End Pass type
(mag) Time Alt. Az. Time Alt. Az. Time Alt. Az.
19 Apr 4.1 19:15:51 10° S 19:22:00 62° E 19:28:13 10° NNE visible
19 Apr 6.0 21:02:31 10° WSW 21:07:48 28° WNW 21:13:09 10° N visible
20 Apr 4.2 19:40:13 10° S 19:46:30 83° W 19:52:52 10° N visible
20 Apr 6.7 21:28:45 10° W 21:32:54 18° WNW 21:37:04 10° NNW visible
21 Apr 5.0 20:05:05 10° SSW 20:11:11 52° WNW 20:17:21 10° N visible
21 Apr 7.0 21:56:24 10° WNW 21:58:12 11° NW 21:59:59 10° NW visible
22 Apr 5.9 20:30:27 10° SW 20:36:02 33° WNW 20:41:40 10° N visible
23 Apr 7.5 03:51:42 10° NNE 03:53:50 12° NE 03:55:58 10° ENE visible
23 Apr 6.6 20:56:26 10° WSW 21:01:03 21° WNW 21:05:43 10° NNW visible
24 Apr 4.7 19:33:17 10° SSW 19:39:29 61° WNW 19:45:46 10° N visible
24 Apr 7.0 21:23:22 10° W 21:26:17 13° NW 21:29:12 10° NNW visible
25 Apr 5.7 19:58:28 10° SW 20:04:17 38° WNW 20:10:09 10° N visible
26 Apr 6.5 20:24:13 10° WSW 20:29:14 24° WNW 20:34:18 10° N visible
27 Apr 7.2 03:43:32 10° NNE 03:47:15 16° ENE 03:50:57 10° E visible
27 Apr 7.0 20:50:44 10° W 20:54:23 16° NW 20:58:04 10° NNW visible
28 Apr 5.4 19:26:33 10° SW 19:32:33 45° WNW 19:38:36 10° N visible
